Time,TemperatureF,DewpointF,PressureIn,WindDirection,WindDirectionDegrees,WindSpeedMPH,WindSpeedGustMPH,Humidity,HourlyPrecipIn,Conditions,Clouds,dailyrainin,SoftwareType,DateUTC
2013-03-07 00:02:00,27.0,24.0,30.27,North,358,10.0,16.0,87,0.00,,,0.00,,2013-03-07 05:02:00,
2013-03-07 00:12:00,27.0,24.0,30.27,North,358,10.0,16.0,87,0.00,,,0.00,,2013-03-07 05:12:00,
2013-03-07 00:22:00,26.0,23.0,30.27,North,351,7.0,15.0,87,0.00,,,0.00,,2013-03-07 05:22:00,
2013-03-07 00:32:00,26.0,23.0,30.26,NW,322,6.0,12.0,87,0.00,,,0.00,,2013-03-07 05:32:00,
2013-03-07 00:42:00,26.0,23.0,30.26,NW,322,6.0,12.0,87,0.00,,,0.00,,2013-03-07 05:42:00,
2013-03-07 00:52:00,26.0,23.0,30.27,NNE,16,10.0,12.0,87,0.00,,,0.00,,2013-03-07 05:52:00,
2013-03-07 01:01:00,26.0,23.0,30.27,NNW,342,10.0,13.0,88,0.00,,,0.00,,2013-03-07 06:01:00,
2013-03-07 01:11:00,26.0,23.0,30.27,NNW,342,10.0,13.0,88,0.00,,,0.00,,2013-03-07 06:11:00,
2013-03-07 01:21:00,26.0,23.0,30.27,North,349,11.0,14.0,88,0.00,,,0.00,,2013-03-07 06:21:00,
2013-03-07 01:32:00,25.0,21.0,30.28,North,5,11.0,19.0,86,0.00,,,0.00,,2013-03-07 06:32:00,
2013-03-07 01:42:00,25.0,21.0,30.28,NE,38,8.0,10.0,85,0.00,,,0.00,,2013-03-07 06:42:00,
2013-03-07 01:51:00,25.0,21.0,30.28,NE,38,8.0,10.0,85,0.00,,,0.00,,2013-03-07 06:51:00,
2013-03-07 02:01:00,25.0,21.0,30.29,NNW,341,5.0,13.0,84,0.00,,,0.00,,2013-03-07 07:01:00,
2013-03-07 02:11:00,25.0,21.0,30.29,NNW,341,5.0,13.0,84,0.00,,,0.00,,2013-03-07 07:11:00,
2013-03-07 02:21:00,25.0,21.0,30.28,North,357,6.0,14.0,84,0.00,,,0.00,,2013-03-07 07:21:00,
2013-03-07 02:32:00,25.0,21.0,30.29,North,353,6.0,12.0,83,0.00,,,0.00,,2013-03-07 07:32:00,
2013-03-07 02:43:00,25.0,21.0,30.29,North,353,6.0,12.0,83,0.00,,,0.00,,2013-03-07 07:43:00,
2013-03-07 02:53:00,24.0,20.0,30.29,NNW,337,8.0,13.0,83,0.00,,,0.00,,2013-03-07 07:53:00,
2013-03-07 03:03:00,24.0,20.0,30.29,NNW,348,9.0,10.0,83,0.00,,,0.00,,2013-03-07 08:03:00,
2013-03-07 03:12:00,24.0,20.0,30.29,NNW,348,9.0,10.0,83,0.00,,,0.00,,2013-03-07 08:12:00,
2013-03-07 03:23:00,24.0,20.0,30.29,North,350,8.0,10.0,83,0.00,,,0.00,,2013-03-07 08:23:00,
2013-03-07 03:33:00,24.0,19.0,30.29,North,0,3.0,6.0,82,0.00,,,0.00,,2013-03-07 08:33:00,
2013-03-07 03:44:00,24.0,19.0,30.29,North,0,3.0,6.0,82,0.00,,,0.00,,2013-03-07 08:44:00,
2013-03-07 03:54:00,24.0,19.0,30.29,North,352,5.0,8.0,82,0.00,,,0.00,,2013-03-07 08:54:00,
2013-03-07 04:03:00,24.0,19.0,30.29,North,0,3.0,9.0,82,0.00,,,0.00,,2013-03-07 09:03:00,
2013-03-07 04:13:00,24.0,19.0,30.29,North,0,3.0,9.0,82,0.00,,,0.00,,2013-03-07 09:13:00,
2013-03-07 04:23:00,24.0,19.0,30.30,NNW,348,4.0,8.0,82,0.00,,,0.00,,2013-03-07 09:23:00,
2013-03-07 04:33:00,24.0,19.0,30.30,North,355,3.0,7.0,82,0.00,,,0.00,,2013-03-07 09:33:00,
2013-03-07 04:43:00,24.0,19.0,30.30,North,355,3.0,7.0,82,0.00,,,0.00,,2013-03-07 09:43:00,
2013-03-07 04:52:00,24.0,19.0,30.30,North,354,6.0,8.0,82,0.00,,,0.00,,2013-03-07 09:52:00,
2013-03-07 05:03:00,24.0,19.0,30.30,North,353,6.0,7.0,81,0.00,,,0.00,,2013-03-07 10:03:00,
2013-03-07 05:13:00,24.0,19.0,30.30,North,353,6.0,7.0,81,0.00,,,0.00,,2013-03-07 10:13:00,
2013-03-07 05:23:00,24.0,19.0,30.29,North,0,3.0,7.0,81,0.00,,,0.00,,2013-03-07 10:23:00,
2013-03-07 05:33:00,24.0,19.0,30.30,North,0,2.0,4.0,81,0.00,,,0.00,,2013-03-07 10:33:00,
2013-03-07 05:42:00,24.0,19.0,30.30,North,0,2.0,4.0,81,0.00,,,0.00,,2013-03-07 10:42:00,
2013-03-07 05:53:00,24.0,19.0,30.31,North,358,3.0,4.0,81,0.00,,,0.00,,2013-03-07 10:53:00,
2013-03-07 06:12:00,24.0,19.0,30.31,NNW,343,2.0,4.0,81,0.00,,,0.00,,2013-03-07 11:12:00,
2013-03-07 06:23:00,24.0,19.0,30.30,NNW,343,0.0,3.0,81,0.00,,,0.00,,2013-03-07 11:23:00,
2013-03-07 06:33:00,24.0,19.0,30.31,NNW,343,2.0,3.0,82,0.00,,,0.00,,2013-03-07 11:33:00,
2013-03-07 06:43:00,24.0,19.0,30.31,NNW,343,2.0,3.0,82,0.00,,,0.00,,2013-03-07 11:43:00,
2013-03-07 06:54:00,24.0,19.0,30.31,NNW,343,0.0,3.0,81,0.00,,,0.00,,2013-03-07 11:54:00,
2013-03-07 07:03:00,24.0,19.0,30.31,North,349,3.0,5.0,80,0.00,,,0.00,,2013-03-07 12:03:00,
2013-03-07 07:12:00,24.0,19.0,30.31,North,349,3.0,5.0,80,0.00,,,0.00,,2013-03-07 12:12:00,
2013-03-07 07:23:00,24.0,18.0,30.32,North,357,6.0,7.0,76,0.00,,,0.00,,2013-03-07 12:23:00,
2013-03-07 07:33:00,25.0,18.0,30.33,NNW,348,2.0,7.0,75,0.00,,,0.00,,2013-03-07 12:33:00,
2013-03-07 07:43:00,25.0,18.0,30.33,NNW,348,2.0,7.0,75,0.00,,,0.00,,2013-03-07 12:43:00,
2013-03-07 07:53:00,25.0,18.0,30.34,NNW,337,3.0,6.0,74,0.00,,,0.00,,2013-03-07 12:53:00,
2013-03-07 08:03:00,25.0,18.0,30.34,North,350,5.0,7.0,74,0.00,,,0.00,,2013-03-07 13:03:00,
2013-03-07 08:12:00,25.0,18.0,30.34,North,350,5.0,7.0,74,0.00,,,0.00,,2013-03-07 13:12:00,
2013-03-07 08:23:00,25.0,17.0,30.35,NNW,344,7.0,10.0,72,0.00,,,0.00,,2013-03-07 13:23:00,
2013-03-07 08:32:00,25.0,17.0,30.35,NNW,346,6.0,9.0,71,0.00,,,0.00,,2013-03-07 13:32:00,
2013-03-07 08:42:00,25.0,17.0,30.35,NNW,346,6.0,9.0,71,0.00,,,0.00,,2013-03-07 13:42:00,
2013-03-07 08:53:00,24.0,16.0,30.35,NNW,348,5.0,11.0,72,0.00,,,0.00,,2013-03-07 13:53:00,
2013-03-07 09:02:00,25.0,18.0,30.36,NNW,345,5.0,10.0,73,0.00,,,0.00,,2013-03-07 14:02:00,
2013-03-07 09:12:00,25.0,18.0,30.36,NNW,345,5.0,10.0,73,0.00,,,0.00,,2013-03-07 14:12:00,
2013-03-07 09:23:00,25.0,18.0,30.36,North,356,5.0,9.0,73,0.00,,,0.00,,2013-03-07 14:23:00,
2013-03-07 09:33:00,25.0,18.0,30.36,NNW,339,8.0,11.0,73,0.00,,,0.00,,2013-03-07 14:33:00,
2013-03-07 09:42:00,25.0,18.0,30.36,NNW,339,8.0,11.0,73,0.00,,,0.00,,2013-03-07 14:42:00,
2013-03-07 09:54:00,25.0,17.0,30.36,North,358,7.0,10.0,71,0.00,,,0.00,,2013-03-07 14:54:00,
2013-03-07 10:03:00,25.0,17.0,30.37,North,10,10.0,14.0,72,0.00,,,0.00,,2013-03-07 15:03:00,
2013-03-07 10:12:00,25.0,17.0,30.37,North,10,10.0,14.0,72,0.00,,,0.00,,2013-03-07 15:12:00,
2013-03-07 10:23:00,25.0,17.0,30.37,North,9,6.0,10.0,71,0.00,,,0.00,,2013-03-07 15:23:00,
2013-03-07 10:32:00,25.0,17.0,30.37,NNW,339,8.0,10.0,70,0.00,,,0.00,,2013-03-07 15:32:00,
2013-03-07 10:42:00,25.0,17.0,30.37,NNW,339,8.0,10.0,70,0.00,,,0.00,,2013-03-07 15:42:00,
2013-03-07 10:53:00,25.0,17.0,30.37,NNW,335,6.0,10.0,72,0.00,,,0.00,,2013-03-07 15:53:00,
2013-03-07 11:02:00,25.0,17.0,30.38,North,2,6.0,11.0,72,0.00,,,0.00,,2013-03-07 16:02:00,
2013-03-07 11:13:00,25.0,17.0,30.38,North,2,6.0,11.0,72,0.00,,,0.00,,2013-03-07 16:13:00,
2013-03-07 11:23:00,25.0,17.0,30.38,North,355,6.0,12.0,71,0.00,,,0.00,,2013-03-07 16:23:00,
2013-03-07 11:33:00,25.0,17.0,30.38,North,355,4.0,10.0,70,0.00,,,0.00,,2013-03-07 16:33:00,
2013-03-07 11:43:00,25.0,17.0,30.38,North,355,4.0,10.0,70,0.00,,,0.00,,2013-03-07 16:43:00,
2013-03-07 11:53:00,26.0,17.0,30.38,NNW,341,7.0,10.0,69,0.00,,,0.00,,2013-03-07 16:53:00,
2013-03-07 12:02:00,26.0,18.0,30.38,NNW,345,5.0,10.0,70,0.00,,,0.00,,2013-03-07 17:02:00,
2013-03-07 12:12:00,26.0,18.0,30.38,NNW,345,5.0,10.0,70,0.00,,,0.00,,2013-03-07 17:12:00,
2013-03-07 12:22:00,26.0,17.0,30.38,North,9,5.0,11.0,68,0.00,,,0.00,,2013-03-07 17:22:00,
2013-03-07 12:33:00,26.0,16.0,30.38,North,0,9.0,11.0,66,0.00,,,0.00,,2013-03-07 17:33:00,
2013-03-07 12:43:00,26.0,16.0,30.38,North,0,9.0,11.0,66,0.00,,,0.00,,2013-03-07 17:43:00,
2013-03-07 12:54:00,26.0,16.0,30.38,North,7,3.0,10.0,65,0.00,,,0.00,,2013-03-07 17:54:00,
2013-03-07 13:04:00,27.0,17.0,30.38,North,354,4.0,9.0,66,0.00,,,0.00,,2013-03-07 18:04:00,
2013-03-07 13:12:00,27.0,17.0,30.38,North,354,4.0,9.0,66,0.00,,,0.00,,2013-03-07 18:12:00,
2013-03-07 13:22:00,27.0,17.0,30.37,North,359,8.0,10.0,66,0.00,,,0.00,,2013-03-07 18:22:00,
2013-03-07 13:32:00,27.0,18.0,30.38,NNW,340,5.0,9.0,68,0.00,,,0.00,,2013-03-07 18:32:00,
2013-03-07 13:42:00,27.0,18.0,30.38,NNW,340,5.0,9.0,68,0.00,,,0.00,,2013-03-07 18:42:00,
2013-03-07 13:52:00,27.0,17.0,30.38,NNW,327,5.0,10.0,66,0.00,,,0.00,,2013-03-07 18:52:00,
2013-03-07 14:03:00,27.0,17.0,30.38,North,357,4.0,10.0,66,0.00,,,0.00,,2013-03-07 19:03:00,
2013-03-07 14:12:00,27.0,17.0,30.38,NNW,332,2.0,7.0,66,0.00,,,0.00,,2013-03-07 19:12:00,
2013-03-07 14:23:00,27.0,17.0,30.38,NNW,332,2.0,7.0,66,0.00,,,0.00,,2013-03-07 19:23:00,
2013-03-07 14:35:00,28.0,17.0,30.38,North,350,4.0,7.0,64,0.00,,,0.00,,2013-03-07 19:35:00,
2013-03-07 14:43:00,28.0,17.0,30.38,North,350,4.0,7.0,64,0.00,,,0.00,,2013-03-07 19:43:00,
2013-03-07 14:52:00,28.0,17.0,30.38,NW,309,3.0,9.0,63,0.00,,,0.00,,2013-03-07 19:52:00,
2013-03-07 15:02:00,28.0,17.0,30.38,NW,322,3.0,9.0,62,0.00,,,0.00,,2013-03-07 20:02:00,
2013-03-07 15:13:00,28.0,17.0,30.38,NW,322,3.0,9.0,62,0.00,,,0.00,,2013-03-07 20:13:00,
2013-03-07 15:22:00,28.0,17.0,30.38,NNE,16,4.0,10.0,64,0.00,,,0.00,,2013-03-07 20:22:00,
2013-03-07 15:43:00,28.0,17.0,30.38,North,358,5.0,6.0,64,0.00,,,0.00,,2013-03-07 20:43:00,
2013-03-07 15:54:00,28.0,17.0,30.39,NNW,347,4.0,9.0,64,0.00,,,0.00,,2013-03-07 20:54:00,
2013-03-07 16:03:00,28.0,17.0,30.39,NNW,328,3.0,7.0,64,0.00,,,0.00,,2013-03-07 21:03:00,
2013-03-07 16:12:00,28.0,17.0,30.39,NNW,328,3.0,7.0,64,0.00,,,0.00,,2013-03-07 21:12:00,
2013-03-07 16:23:00,28.0,17.0,30.40,NNW,337,3.0,10.0,63,0.00,,,0.00,,2013-03-07 21:23:00,
2013-03-07 16:33:00,27.0,17.0,30.40,NNW,347,4.0,8.0,65,0.00,,,0.00,,2013-03-07 21:33:00,
2013-03-07 16:43:00,27.0,17.0,30.40,NNW,347,4.0,8.0,65,0.00,,,0.00,,2013-03-07 21:43:00,
2013-03-07 16:53:00,27.0,17.0,30.40,NW,325,3.0,8.0,65,0.00,,,0.00,,2013-03-07 21:53:00,
2013-03-07 17:02:00,27.0,16.0,30.40,NNW,337,4.0,6.0,64,0.00,,,0.00,,2013-03-07 22:02:00,
2013-03-07 17:12:00,27.0,16.0,30.40,NNW,337,4.0,6.0,64,0.00,,,0.00,,2013-03-07 22:12:00,
2013-03-07 17:23:00,27.0,16.0,30.40,NW,320,5.0,5.0,64,0.00,,,0.00,,2013-03-07 22:23:00,
2013-03-07 17:32:00,27.0,17.0,30.40,North,8,8.0,8.0,66,0.00,,,0.00,,2013-03-07 22:32:00,
2013-03-07 17:43:00,27.0,17.0,30.40,North,8,8.0,8.0,66,0.00,,,0.00,,2013-03-07 22:43:00,
2013-03-07 17:54:00,27.0,17.0,30.40,North,9,3.0,7.0,65,0.00,,,0.00,,2013-03-07 22:54:00,
2013-03-07 18:03:00,27.0,17.0,30.41,NNE,28,0.0,5.0,66,0.00,,,0.00,,2013-03-07 23:03:00,
2013-03-07 18:13:00,27.0,17.0,30.41,NNE,28,0.0,5.0,66,0.00,,,0.00,,2013-03-07 23:13:00,
2013-03-07 18:22:00,27.0,18.0,30.41,NNW,346,2.0,5.0,67,0.00,,,0.00,,2013-03-07 23:22:00,
2013-03-07 18:33:00,27.0,18.0,30.41,NNE,18,4.0,8.0,68,0.00,,,0.00,,2013-03-07 23:33:00,
2013-03-07 18:43:00,27.0,18.0,30.41,NNE,18,4.0,8.0,68,0.00,,,0.00,,2013-03-07 23:43:00,
2013-03-07 18:53:00,26.0,17.0,30.42,NNW,343,1.0,6.0,69,0.00,,,0.00,,2013-03-07 23:53:00,
2013-03-07 19:04:00,26.0,18.0,30.42,NNW,336,3.0,4.0,70,0.00,,,0.00,,2013-03-08 00:04:00,
2013-03-07 19:13:00,26.0,18.0,30.42,NNW,336,3.0,4.0,70,0.00,,,0.00,,2013-03-08 00:13:00,
2013-03-07 19:23:00,26.0,18.0,30.42,NNW,327,0.0,3.0,70,0.00,,,0.00,,2013-03-08 00:23:00,
2013-03-07 19:34:00,26.0,18.0,30.42,NNW,327,0.0,0.0,70,0.00,,,0.00,,2013-03-08 00:34:00,
2013-03-07 19:43:00,26.0,18.0,30.42,NNW,327,0.0,0.0,70,0.00,,,0.00,,2013-03-08 00:43:00,
2013-03-07 19:54:00,26.0,18.0,30.43,NNW,327,0.0,3.0,71,0.00,,,0.00,,2013-03-08 00:54:00,
2013-03-07 20:02:00,26.0,18.0,30.43,NNW,327,0.0,3.0,72,0.00,,,0.00,,2013-03-08 01:02:00,
2013-03-07 20:11:00,26.0,18.0,30.43,NNW,327,0.0,3.0,72,0.00,,,0.00,,2013-03-08 01:11:00,
2013-03-07 20:22:00,26.0,18.0,30.42,NNW,327,0.0,3.0,72,0.00,,,0.00,,2013-03-08 01:22:00,
2013-03-07 20:33:00,26.0,18.0,30.43,NNW,327,0.0,1.0,72,0.00,,,0.00,,2013-03-08 01:33:00,
2013-03-07 20:42:00,26.0,18.0,30.43,NNW,327,0.0,1.0,72,0.00,,,0.00,,2013-03-08 01:42:00,
2013-03-07 20:52:00,26.0,18.0,30.43,NNW,327,0.0,0.0,72,0.00,,,0.00,,2013-03-08 01:52:00,
2013-03-07 21:01:00,26.0,18.0,30.43,NNW,327,0.0,1.0,72,0.00,,,0.00,,2013-03-08 02:01:00,
2013-03-07 21:12:00,26.0,18.0,30.43,NNW,327,0.0,1.0,72,0.00,,,0.00,,2013-03-08 02:12:00,
2013-03-07 21:22:00,26.0,18.0,30.43,NNW,327,0.0,1.0,72,0.00,,,0.00,,2013-03-08 02:22:00,
2013-03-07 21:32:00,26.0,19.0,30.43,NNW,327,1.0,3.0,73,0.00,,,0.00,,2013-03-08 02:32:00,
2013-03-07 21:42:00,26.0,19.0,30.43,NNW,327,1.0,3.0,73,0.00,,,0.00,,2013-03-08 02:42:00,
2013-03-07 21:52:00,26.0,18.0,30.43,NNW,327,0.0,1.0,72,0.00,,,0.00,,2013-03-08 02:52:00,
2013-03-07 22:02:00,26.0,19.0,30.43,NNW,327,0.0,2.0,73,0.00,,,0.00,,2013-03-08 03:02:00,
2013-03-07 22:12:00,26.0,19.0,30.43,NNW,327,0.0,2.0,73,0.00,,,0.00,,2013-03-08 03:12:00,
2013-03-07 22:22:00,26.0,19.0,30.43,NNW,327,0.0,0.0,73,0.00,,,0.00,,2013-03-08 03:22:00,
2013-03-07 22:32:00,26.0,19.0,30.44,NNW,327,1.0,3.0,73,0.00,,,0.00,,2013-03-08 03:32:00,
2013-03-07 22:43:00,26.0,19.0,30.44,NNW,327,1.0,3.0,73,0.00,,,0.00,,2013-03-08 03:43:00,
2013-03-07 22:52:00,26.0,19.0,30.44,NNW,327,0.0,3.0,75,0.00,,,0.00,,2013-03-08 03:52:00,
2013-03-07 23:02:00,25.0,18.0,30.44,NNW,327,0.0,0.0,75,0.00,,,0.00,,2013-03-08 04:02:00,
2013-03-07 23:11:00,25.0,18.0,30.44,NNW,327,0.0,0.0,75,0.00,,,0.00,,2013-03-08 04:11:00,
2013-03-07 23:22:00,26.0,19.0,30.43,NNW,327,0.0,0.0,74,0.00,,,0.00,,2013-03-08 04:22:00,
2013-03-07 23:32:00,26.0,19.0,30.44,NNW,327,0.0,3.0,75,0.00,,,0.00,,2013-03-08 04:32:00,
2013-03-07 23:42:00,26.0,19.0,30.44,NNW,327,0.0,3.0,75,0.00,,,0.00,,2013-03-08 04:42:00,
2013-03-07 23:52:00,25.0,18.0,30.43,NNW,327,2.0,2.0,75,0.00,,,0.00,,2013-03-08 04:52:00,